[[{"header":{"parameterUnit":"m.s-1","parameterCategory":1,"la1":30.2991,"la2":30.254,"lo1":-89.0895,"lo2":-89.0444,"dy":0.0017,"dx":0.0017,"nx":28,"ny":28,"refTime":"2025-03-11T09:00:00:Z","depth":0,"parameterNumber":2,"parameterNumberName":"U-component_of_WINDS"},"data":[0,0,0,0,0,0,0,0,0,0,0,0,0,0,0,0,0,0,0,0,0,0,0,0,0,0,0,0,0,0,0,0,0,0,0,0,0,0,0,0,0,0,0,0,0,0,0,0,0,0,0,0,0,0,0,0,0,0,2.2079,2.208,0,2.2119,2.212,2.212,2.208,2.2078,2.2077,2.2075,2.2115,2.2118,2.212,0,0,0,0,0,0,0,0,0,0,0,0,0,2.1967,2.1969,2.2079,2.208,2.208,2.2119,2.212,2.212,2.208,2.2078,2.2076,2.2074,2.2115,2.2118,2.2121,0,0,0,0,0,0,0,0,0,0,0,0,0,2.2012,2.197,2.2079,2.2065,2.2064,2.2119,2.212,2.212,2.208,2.2078,2.2076,2.2074,2.2114,2.2117,2.2121,2.2192,0,0,2.2133,2.2134,0,0,0,0,0,0,0,0,2.201,2.2016,2.2066,2.2066,2.2065,2.2092,2.2095,2.2144,2.2081,2.2074,2.2075,2.2072,2.211,2.2114,2.2126,2.2194,2.2196,2.2133,2.2135,2.2137,2.2138,0,0,0,0,0,0,0,2.2007,2.2014,2.2095,2.2067,2.2066,2.2056,2.206,2.2104,2.2105,2.2075,2.2072,2.2077,2.2109,2.2123,2.2127,2.2196,2.2133,2.2136,2.2139,2.214,2.2324,2.2326,0,0,0,0,0,0,2.2005,2.2012,2.2094,2.2096,2.2031,2.206,2.2064,2.2086,2.2104,2.2105,2.2079,2.2075,2.2117,2.2122,2.2128,2.2212,2.2137,2.2141,2.2143,2.2321,2.2325,2.2327,0,0,0,0,0,0,2.2003,2.2013,2.2092,2.2053,2.2063,2.2065,2.2089,2.2088,2.2102,2.2107,2.2107,2.2093,2.2116,2.2123,2.2176,2.2213,2.2142,2.2146,2.2318,2.2322,2.2326,2.2381,0,0,0,0,0,0,2.2,2.2012,2.2039,2.2054,2.2065,2.214,2.2091,2.209,2.2108,2.2104,2.2121,2.2121,2.2114,2.2171,2.218,2.2217,2.2149,2.2315,2.232,2.2325,2.2376,2.2387,2.2396,0,0,0,0,0,2.1996,2.2053,2.2041,2.2051,2.2099,2.2142,2.2148,2.2139,2.2112,2.2139,2.2142,2.2121,2.2208,2.2177,2.2187,2.2226,2.2313,2.2319,2.2324,2.2372,2.2385,2.2395,0,0,0,0,0,0,2.2042,2.2055,2.2041,2.2105,2.2123,2.2135,2.2169,2.2153,2.2179,2.2173,2.2161,2.2165,2.2222,2.2229,2.2194,2.2295,2.2256,2.2264,2.2288,2.2301,2.231,2.2307,2.2152,0,0,0,0,0,2.206,2.2094,2.2103,2.2159,2.2168,2.2168,2.2186,2.2178,2.2195,2.2203,2.221,2.2228,2.2259,2.228,2.2309,2.2377,2.238,2.2409,2.2418,2.2426,2.2433,2.247,2.2482,2.2347,2.2346,2.2346,0,0,2.2097,2.2108,2.213,2.2168,2.2181,2.2217,2.2174,2.2214,2.224,2.2209,2.226,2.2266,2.2285,2.2346,2.2374,2.2354,2.2472,2.2434,2.244,2.2443,2.2477,2.249,2.2501,2.235,2.235,2.2349,0,0,2.2182,2.2194,2.2242,2.2255,2.2275,2.2274,2.2286,2.2301,2.2304,2.2355,2.2332,2.2363,2.2418,2.2432,2.2447,2.2538,2.2519,2.2548,2.2598,2.2634,2.2644,2.2654,2.2686,2.2698,2.2555,2.2555,2.2555,0,2.2225,2.2278,2.2268,2.2309,2.2327,2.23,2.2348,2.2362,2.239,2.2403,2.2381,2.2448,2.2459,2.2523,2.2546,2.2558,2.2571,2.2546,2.2644,2.2653,2.2662,2.2693,2.2705,2.2558,2.2558,2.2558,2.2557,0,2.233,2.2368,2.2403,2.2432,2.2453,2.2498,2.2494,2.2517,2.2507,2.2508,2.2561,2.2573,2.2604,2.2619,2.2609,2.2682,2.2669,2.2646,2.2606,2.2678,2.2707,2.2719,2.2563,2.2562,2.2561,2.256,0,0,2.2446,2.2468,2.2482,2.2494,2.2514,2.2543,2.2586,2.2617,2.2637,2.2657,2.2693,2.274,2.2718,2.2735,2.2727,2.2758,2.2829,2.273,2.2731,2.2748,2.291,2.2927,2.2941,2.2817,2.2819,2.2821,2.2908,0,2.2532,2.2607,2.2599,2.2671,2.2705,2.268,2.2718,2.2734,2.2737,2.2766,2.2768,2.2802,2.2771,2.2781,2.281,2.2814,2.2861,2.2808,2.285,2.2851,2.2846,2.2956,2.2975,2.3057,2.2919,2.2921,2.2923,0,2.2642,2.2667,2.2742,2.2757,2.2771,2.2805,2.2833,2.2861,2.2879,2.2878,2.2897,2.2884,2.2927,2.2886,2.2945,2.2909,2.2926,2.293,2.2933,2.2937,2.2891,2.2963,2.3083,2.3095,2.294,2.2939,2.2938,0,2.2719,2.2771,2.2823,2.2834,2.2853,2.2878,2.2886,2.2902,2.2921,2.2945,2.2957,2.2986,2.3002,2.3024,2.3019,2.299,2.308,2.3038,2.308,2.3081,2.31,2.3099,2.3225,2.3111,2.3111,2.3111,2.3111,0,2.2816,2.2863,2.2858,2.2889,2.2941,2.2931,2.2983,2.2989,2.3003,2.3035,2.3016,2.3046,2.3037,2.3067,2.3063,2.3113,2.312,2.3121,2.3119,2.3123,2.3123,2.3133,2.3127,2.3114,2.3113,2.3113,2.3112,0,2.291,2.2909,2.2964,2.2977,2.2981,2.3019,2.303,2.306,2.3061,2.3102,2.3111,2.3113,2.3147,2.3144,2.3183,2.318,2.3242,2.3233,2.3236,2.3234,2.3276,2.3272,2.3413,2.3431,2.3306,2.3307,2.3308,0,2.2972,2.3008,2.3025,2.3046,2.3056,2.3089,2.3109,2.31,2.3121,2.3145,2.3172,2.3205,2.323,2.3287,2.3291,2.3321,2.3313,2.336,2.3317,2.3319,2.3313,2.3311,2.3315,2.3369,2.337,2.3371,2.3372,0,2.3083,2.308,2.3109,2.3138,2.3161,2.3184,2.3204,2.3221,2.3215,2.3239,2.3275,2.3295,2.3335,2.3367,2.3395,2.3404,2.3387,2.3386,2.3397,2.3401,2.3401,2.3401,2.3259,2.3382,2.3381,2.3381,2.338,2.338,2.3163,2.3193,2.321,2.3243,2.3257,2.3276,2.3305,2.331,2.3339,2.3371,2.3364,2.3404,2.3421,2.3457,2.3468,2.3499,2.3482,2.3498,2.3502,2.3506,2.3511,2.3396,2.3504,2.3504,2.3503,2.3503,2.3503,0,2.3272,2.3282,2.3312,2.3341,2.3366,2.3348,2.337,2.3392,2.3428,2.3445,2.3471,2.3511,2.3543,2.355,2.358,2.3604,2.3597,2.3612,2.361,2.3612,2.3525,2.3512,2.3617,2.3617,2.3617,2.3617,2.3617,2.3617,2.3332,2.3382,2.3382,2.3439,2.3448,2.3487,2.3501,2.3519,2.3532,2.3579,2.3605,2.3609,2.3622,2.3653,2.3682,2.3683,2.3695,2.3713,2.3712,2.363,2.3618,2.3608,2.3595,2.3716,2.3716,2.3796,2.3797,2.3797]},{"header":{"parameterUnit":"m.s-1","parameterCategory":1,"la1":30.2991,"la2":30.254,"lo1":-89.0895,"lo2":-89.0444,"dy":0.0017,"dx":0.0017,"nx":28,"ny":28,"refTime":"2025-03-11T09:00:00:Z","depth":0,"parameterNumber":3,"parameterNumberName":"V-component_of_WINDS"},"data":[0,0,0,0,0,0,0,0,0,0,0,0,0,0,0,0,0,0,0,0,0,0,0,0,0,0,0,0,0,0,0,0,0,0,0,0,0,0,0,0,0,0,0,0,0,0,0,0,0,0,0,0,0,0,0,0,0,0,-1.5974,-1.5974,0,-1.6032,-1.6033,-1.6033,-1.6033,-1.6032,-1.6031,-1.6031,-1.6089,-1.6092,-1.6094,0,0,0,0,0,0,0,0,0,0,0,0,0,-1.5861,-1.5863,-1.5974,-1.5975,-1.5975,-1.6032,-1.6033,-1.6034,-1.6033,-1.6032,-1.6031,-1.603,-1.6089,-1.6091,-1.6094,0,0,0,0,0,0,0,0,0,0,0,0,0,-1.5914,-1.5864,-1.5974,-1.5982,-1.5983,-1.6032,-1.6033,-1.6034,-1.6033,-1.6032,-1.6031,-1.603,-1.6088,-1.6091,-1.6094,-1.6139,0,0,-1.6105,-1.6106,0,0,0,0,0,0,0,0,-1.5911,-1.5918,-1.598,-1.5981,-1.5983,-1.6024,-1.6015,-1.6069,-1.6034,-1.6014,-1.6031,-1.6029,-1.6069,-1.6073,-1.6087,-1.6141,-1.6144,-1.6105,-1.6107,-1.6109,-1.611,0,0,0,0,0,0,0,-1.5907,-1.5915,-1.5997,-1.5981,-1.5983,-1.5982,-1.5989,-1.6025,-1.6047,-1.6016,-1.6016,-1.6023,-1.6069,-1.6084,-1.6088,-1.6145,-1.6105,-1.6108,-1.611,-1.6112,-1.6238,-1.624,0,0,0,0,0,0,-1.5902,-1.5912,-1.5995,-1.5999,-1.5943,-1.5985,-1.5992,-1.6012,-1.6047,-1.6051,-1.6024,-1.6023,-1.6078,-1.6084,-1.609,-1.6144,-1.6109,-1.6112,-1.6114,-1.6237,-1.6239,-1.624,0,0,0,0,0,0,-1.59,-1.5909,-1.5993,-1.5956,-1.5966,-1.5989,-1.6011,-1.6014,-1.6028,-1.6053,-1.6057,-1.6035,-1.6078,-1.6085,-1.6127,-1.6146,-1.6113,-1.6117,-1.6236,-1.6238,-1.6239,-1.6253,0,0,0,0,0,0,-1.5896,-1.5909,-1.5926,-1.5956,-1.5968,-1.6028,-1.6012,-1.6016,-1.6034,-1.6033,-1.6064,-1.6068,-1.6077,-1.6122,-1.613,-1.615,-1.6119,-1.6234,-1.6236,-1.6239,-1.625,-1.6255,-1.6258,0,0,0,0,0,-1.5892,-1.5927,-1.5927,-1.5936,-1.599,-1.6029,-1.6036,-1.6047,-1.6036,-1.6053,-1.6069,-1.6067,-1.6143,-1.6126,-1.6135,-1.6157,-1.6233,-1.6236,-1.6239,-1.6249,-1.6254,-1.6258,0,0,0,0,0,0,-1.5898,-1.5931,-1.5931,-1.5976,-1.6,-1.6029,-1.6051,-1.6052,-1.6079,-1.6077,-1.6089,-1.6096,-1.6137,-1.6151,-1.6131,-1.6202,-1.6186,-1.6191,-1.6191,-1.6196,-1.62,-1.6195,-1.6122,0,0,0,0,0,-1.5904,-1.5934,-1.5961,-1.5998,-1.601,-1.6029,-1.6046,-1.6053,-1.6077,-1.6087,-1.6106,-1.613,-1.616,-1.6179,-1.6207,-1.6253,-1.6259,-1.6272,-1.6276,-1.6279,-1.6283,-1.6309,-1.6315,-1.625,-1.625,-1.625,0,0,-1.5918,-1.594,-1.5957,-1.6,-1.6019,-1.6049,-1.6037,-1.6069,-1.6092,-1.6092,-1.6132,-1.6147,-1.6175,-1.6218,-1.6238,-1.6231,-1.6303,-1.6283,-1.6286,-1.6288,-1.6312,-1.6319,-1.6324,-1.6252,-1.6252,-1.6251,0,0,-1.5958,-1.5977,-1.6011,-1.603,-1.606,-1.6072,-1.608,-1.6109,-1.6119,-1.616,-1.6161,-1.6187,-1.6238,-1.6257,-1.6274,-1.6322,-1.6321,-1.6331,-1.6351,-1.6376,-1.6381,-1.6386,-1.6403,-1.6409,-1.6335,-1.6335,-1.6335,0,-1.5971,-1.6017,-1.6028,-1.606,-1.6079,-1.6081,-1.6115,-1.6133,-1.617,-1.6183,-1.6175,-1.6238,-1.6257,-1.6305,-1.6317,-1.633,-1.634,-1.6327,-1.638,-1.6384,-1.6389,-1.6405,-1.6412,-1.6336,-1.6336,-1.6336,-1.6336,0,-1.6031,-1.6063,-1.6086,-1.6122,-1.6143,-1.6176,-1.6192,-1.6213,-1.6217,-1.623,-1.6271,-1.6294,-1.6327,-1.6339,-1.6344,-1.6388,-1.6383,-1.6377,-1.6362,-1.6396,-1.6411,-1.6418,-1.6337,-1.6337,-1.6337,-1.6337,0,0,-1.6076,-1.6118,-1.6126,-1.6143,-1.6176,-1.62,-1.6233,-1.6266,-1.6283,-1.6309,-1.6336,-1.6379,-1.6374,-1.6393,-1.64,-1.6421,-1.6458,-1.6413,-1.6414,-1.642,-1.6509,-1.6513,-1.652,-1.6458,-1.6459,-1.646,-1.6506,0,-1.6119,-1.6178,-1.6189,-1.6241,-1.627,-1.6273,-1.6302,-1.6325,-1.6338,-1.6364,-1.6379,-1.6409,-1.64,-1.6411,-1.6433,-1.6449,-1.6476,-1.6446,-1.6483,-1.6485,-1.6476,-1.6528,-1.6532,-1.6575,-1.6512,-1.6513,-1.6514,0,-1.6178,-1.6205,-1.6259,-1.6289,-1.6301,-1.6327,-1.6358,-1.6383,-1.641,-1.6418,-1.6439,-1.6444,-1.6478,-1.6461,-1.6509,-1.6488,-1.6504,-1.6515,-1.6516,-1.652,-1.6501,-1.6533,-1.6589,-1.6595,-1.6524,-1.6523,-1.6522,0,-1.6205,-1.6255,-1.6294,-1.6308,-1.6343,-1.6361,-1.6377,-1.6402,-1.6421,-1.6448,-1.646,-1.6491,-1.6508,-1.6531,-1.6544,-1.6531,-1.659,-1.6575,-1.6598,-1.6597,-1.661,-1.6609,-1.6669,-1.6621,-1.6621,-1.662,-1.662,0,-1.6252,-1.6285,-1.6307,-1.6331,-1.6368,-1.6381,-1.6417,-1.6432,-1.6454,-1.6481,-1.6486,-1.6511,-1.6526,-1.6553,-1.6563,-1.6601,-1.6608,-1.6616,-1.6618,-1.6615,-1.6614,-1.6626,-1.6623,-1.6622,-1.6622,-1.6621,-1.6621,0,-1.6288,-1.6304,-1.6347,-1.6377,-1.6385,-1.6411,-1.6436,-1.646,-1.6473,-1.6507,-1.6516,-1.6536,-1.6569,-1.6584,-1.6624,-1.663,-1.6673,-1.6674,-1.6664,-1.6665,-1.6687,-1.6685,-1.6757,-1.6767,-1.6712,-1.6712,-1.6713,0,-1.6317,-1.6343,-1.6375,-1.6394,-1.641,-1.6439,-1.6459,-1.6472,-1.6493,-1.6525,-1.6544,-1.6577,-1.6603,-1.6655,-1.6674,-1.6704,-1.6705,-1.6728,-1.671,-1.6706,-1.6705,-1.6704,-1.6706,-1.6731,-1.6732,-1.6732,-1.6733,0,-1.6367,-1.6374,-1.6402,-1.6433,-1.6457,-1.6482,-1.6506,-1.6521,-1.6538,-1.6561,-1.6594,-1.6615,-1.6656,-1.6688,-1.672,-1.6736,-1.6737,-1.6738,-1.6745,-1.6743,-1.6736,-1.674,-1.6673,-1.6737,-1.6736,-1.6736,-1.6736,-1.6736,-1.6401,-1.6424,-1.645,-1.6481,-1.6501,-1.6524,-1.6548,-1.6564,-1.6592,-1.6627,-1.6633,-1.6669,-1.6694,-1.6738,-1.6754,-1.6782,-1.6777,-1.6787,-1.6789,-1.6791,-1.6793,-1.6732,-1.6788,-1.6788,-1.6788,-1.6788,-1.6788,0,-1.6451,-1.6468,-1.6497,-1.6531,-1.6556,-1.6555,-1.6583,-1.6603,-1.6634,-1.6659,-1.6685,-1.6723,-1.6755,-1.6776,-1.6808,-1.6826,-1.6828,-1.6834,-1.6833,-1.6836,-1.6796,-1.6787,-1.6832,-1.6832,-1.6832,-1.6832,-1.6832,-1.6832,-1.648,-1.6518,-1.6528,-1.6577,-1.6594,-1.6629,-1.6645,-1.6666,-1.6685,-1.6728,-1.6754,-1.6768,-1.6791,-1.6824,-1.6853,-1.6859,-1.687,-1.6877,-1.6882,-1.6844,-1.6839,-1.6835,-1.6826,-1.6879,-1.6879,-1.692,-1.6921,-1.6921]}]]